Wetterdaten: aktuell Freitag, 28.07.2017 04:40
Datum Zeit Temp. A. Temp. A. min Feuchte A. Luftdruck Regen Wind Richtung Richtung Sonnenschein Solar Taupunkt Windchill Windben
28.07.2017 04:40 15,7 C 15,7 C 93 % 1010,8 hPa 0,0 l/m 4,1 km/h (1 Bft) S-SW 205 0 min 0 W/m 14,6 C 15,7 C 6,4 km/h (2 Bft)
28.07.2017 04:35 15,8 C 15,8 C 93 % 1010,8 hPa 0,0 l/m 4,2 km/h (1 Bft) S-SW 198 0 min 0 W/m 14,7 C 15,8 C 6,4 km/h (2 Bft)
28.07.2017 04:30 15,9 C 15,8 C 93 % 1010,7 hPa 0,0 l/m 3,8 km/h (1 Bft) SW 230 0 min 0 W/m 14,8 C 15,9 C 6,4 km/h (2 Bft)
28.07.2017 04:25 15,9 C 15,9 C 93 % 1010,7 hPa 0,0 l/m 3,1 km/h (1 Bft) SW 220 0 min 0 W/m 14,8 C 15,9 C 8,0 km/h (2 Bft)
28.07.2017 04:20 16,1 C 16,0 C 93 % 1010,6 hPa 0,0 l/m 2,5 km/h (1 Bft) SW 215 0 min 0 W/m 15,0 C 16,1 C 4,8 km/h (1 Bft)
28.07.2017 04:15 16,1 C 16,1 C 93 % 1010,5 hPa 0,0 l/m 3,3 km/h (1 Bft) SW 215 0 min 0 W/m 15,0 C 16,1 C 6,4 km/h (2 Bft)
28.07.2017 04:10 16,2 C 16,2 C 93 % 1010,5 hPa 0,0 l/m 2,4 km/h (1 Bft) S 190 0 min 0 W/m 15,1 C 16,2 C 4,8 km/h (1 Bft)
28.07.2017 04:05 16,3 C 16,3 C 93 % 1010,3 hPa 0,0 l/m 2,4 km/h (1 Bft) S-SW 207 0 min 0 W/m 15,2 C 16,3 C 4,8 km/h (1 Bft)
28.07.2017 04:00 16,4 C 16,4 C 93 % 1010,3 hPa 0,0 l/m 2,2 km/h (1 Bft) S-SW 207 0 min 0 W/m 15,3 C 16,4 C 4,8 km/h (1 Bft)
28.07.2017 03:55 16,6 C 16,6 C 93 % 1010,3 hPa 0,0 l/m 2,1 km/h (1 Bft) SW 215 0 min 0 W/m 15,5 C 16,6 C 6,4 km/h (2 Bft)
28.07.2017 03:50 16,6 C 16,6 C 93 % 1010,3 hPa 0,0 l/m 2,7 km/h (1 Bft) SW 222 0 min 0 W/m 15,5 C 16,6 C 8,0 km/h (2 Bft)
28.07.2017 03:45 16,7 C 16,7 C 93 % 1010,3 hPa 0,0 l/m 2,2 km/h (1 Bft) SW 220 0 min 0 W/m 15,6 C 16,7 C 6,4 km/h (2 Bft)
28.07.2017 03:40 16,8 C 16,8 C 93 % 1010,3 hPa 0,0 l/m 1,9 km/h (1 Bft) SW 227 0 min 0 W/m 15,7 C 16,8 C 3,2 km/h (1 Bft)
28.07.2017 03:35 16,9 C 16,9 C 92 % 1010,3 hPa 0,0 l/m 1,3 km/h (1 Bft) SW 227 0 min 0 W/m 15,6 C 16,9 C 4,8 km/h (1 Bft)
28.07.2017 03:30 16,9 C 16,9 C 93 % 1010,2 hPa 0,0 l/m 1,4 km/h (1 Bft) SW 224 0 min 0 W/m 15,8 C 16,9 C 4,8 km/h (1 Bft)
28.07.2017 03:25 17,0 C 17,0 C 93 % 1010,1 hPa 0,0 l/m 4,0 km/h (1 Bft) SW 228 0 min 0 W/m 15,9 C 17,0 C 8,0 km/h (2 Bft)
28.07.2017 03:20 17,1 C 17,1 C 93 % 1010,0 hPa 0,0 l/m 4,6 km/h (1 Bft) W-SW 240 0 min 0 W/m 16,0 C 17,1 C 8,0 km/h (2 Bft)
28.07.2017 03:15 17,1 C 17,1 C 93 % 1010,0 hPa 0,0 l/m 5,2 km/h (1 Bft) SW 232 0 min 0 W/m 16,0 C 17,1 C 9,7 km/h (2 Bft)
28.07.2017 03:10 17,2 C 17,2 C 93 % 1010,0 hPa 0,0 l/m 5,6 km/h (1 Bft) SW 229 0 min 0 W/m 16,1 C 17,2 C 9,7 km/h (2 Bft)
28.07.2017 03:05 17,2 C 17,2 C 93 % 1009,9 hPa 0,0 l/m 6,1 km/h (2 Bft) SW 214 0 min 0 W/m 16,1 C 17,2 C 14,5 km/h (3 Bft)
28.07.2017 03:00 17,2 C 17,2 C 93 % 1009,9 hPa 0,0 l/m 6,0 km/h (2 Bft) S-SO 157 0 min 0 W/m 16,1 C 17,2 C 11,3 km/h (2 Bft)
28.07.2017 02:55 17,3 C 17,3 C 93 % 1009,9 hPa 0,0 l/m 6,2 km/h (2 Bft) S 182 0 min 0 W/m 16,2 C 17,3 C 9,7 km/h (2 Bft)
28.07.2017 02:50 17,3 C 17,3 C 93 % 1010,0 hPa 0,0 l/m 6,0 km/h (2 Bft) S-SW 201 0 min 0 W/m 16,2 C 17,3 C 9,7 km/h (2 Bft)
28.07.2017 02:45 17,4 C 17,4 C 93 % 1009,9 hPa 0,0 l/m 5,9 km/h (2 Bft) S-SW 194 0 min 0 W/m 16,3 C 17,4 C 9,7 km/h (2 Bft)
28.07.2017 02:40 17,4 C 17,4 C 93 % 1009,9 hPa 0,0 l/m 4,7 km/h (1 Bft) S-SW 197 0 min 0 W/m 16,3 C 17,4 C 8,0 km/h (2 Bft)
28.07.2017 02:35 17,4 C 17,4 C 93 % 1009,9 hPa 0,0 l/m 5,2 km/h (1 Bft) S 182 0 min 0 W/m 16,3 C 17,4 C 9,7 km/h (2 Bft)
28.07.2017 02:30 17,5 C 17,5 C 93 % 1010,0 hPa 0,0 l/m 5,1 km/h (1 Bft) S-SW 195 0 min 0 W/m 16,4 C 17,5 C 8,0 km/h (2 Bft)
28.07.2017 02:25 17,6 C 17,6 C 93 % 1010,0 hPa 0,0 l/m 5,3 km/h (1 Bft) S 186 0 min 0 W/m 16,5 C 17,6 C 9,7 km/h (2 Bft)
28.07.2017 02:20 17,6 C 17,6 C 93 % 1009,9 hPa 0,0 l/m 5,2 km/h (1 Bft) SW 214 0 min 0 W/m 16,5 C 17,6 C 9,7 km/h (2 Bft)
28.07.2017 02:15 17,6 C 17,6 C 93 % 1009,9 hPa 0,0 l/m 5,1 km/h (1 Bft) S-SW 198 0 min 0 W/m 16,5 C 17,6 C 9,7 km/h (2 Bft)
28.07.2017 02:10 17,7 C 17,7 C 93 % 1010,0 hPa 0,0 l/m 5,8 km/h (2 Bft) S 190 0 min 0 W/m 16,6 C 17,7 C 11,3 km/h (2 Bft)
28.07.2017 02:05 17,7 C 17,7 C 93 % 1010,0 hPa 0,0 l/m 4,6 km/h (1 Bft) S-SW 212 0 min 0 W/m 16,6 C 17,7 C 11,3 km/h (2 Bft)
28.07.2017 02:00 17,7 C 17,7 C 93 % 1009,8 hPa 0,0 l/m 3,2 km/h (1 Bft) S-SW 198 0 min 0 W/m 16,6 C 17,7 C 6,4 km/h (2 Bft)
28.07.2017 01:55 17,8 C 17,8 C 93 % 1009,8 hPa 0,0 l/m 2,2 km/h (1 Bft) S 184 0 min 0 W/m 16,7 C 17,8 C 4,8 km/h (1 Bft)
28.07.2017 01:50 17,8 C 17,8 C 93 % 1009,7 hPa 0,0 l/m 3,0 km/h (1 Bft) S-SW 207 0 min 0 W/m 16,7 C 17,8 C 6,4 km/h (2 Bft)
28.07.2017 01:45 17,8 C 17,8 C 93 % 1009,7 hPa 0,2 l/m 3,0 km/h (1 Bft) S-SW 200 0 min 0 W/m 16,7 C 17,8 C 6,4 km/h (2 Bft)
28.07.2017 01:40 17,8 C 17,8 C 93 % 1009,7 hPa 0,0 l/m 2,3 km/h (1 Bft) S-SW 206 0 min 0 W/m 16,7 C 17,8 C 4,8 km/h (1 Bft)
28.07.2017 01:35 17,8 C 17,8 C 93 % 1009,6 hPa 0,0 l/m 3,1 km/h (1 Bft) S-SW 193 0 min 0 W/m 16,7 C 17,8 C 6,4 km/h (2 Bft)
28.07.2017 01:30 17,8 C 17,8 C 93 % 1009,6 hPa 0,0 l/m 3,0 km/h (1 Bft) S 191 0 min 0 W/m 16,7 C 17,8 C 6,4 km/h (2 Bft)
28.07.2017 01:25 17,8 C 17,8 C 93 % 1009,5 hPa 0,0 l/m 3,8 km/h (1 Bft) S 191 0 min 0 W/m 16,7 C 17,8 C 8,0 km/h (2 Bft)
28.07.2017 01:20 17,8 C 17,8 C 93 % 1009,3 hPa 0,0 l/m 3,8 km/h (1 Bft) SW 215 0 min 0 W/m 16,7 C 17,8 C 6,4 km/h (2 Bft)
28.07.2017 01:15 17,9 C 17,9 C 93 % 1009,3 hPa 0,0 l/m 4,0 km/h (1 Bft) S-SW 200 0 min 0 W/m 16,8 C 17,9 C 8,0 km/h (2 Bft)
28.07.2017 01:10 17,9 C 17,9 C 93 % 1009,2 hPa 0,0 l/m 4,3 km/h (1 Bft) S-SW 198 0 min 0 W/m 16,8 C 17,9 C 8,0 km/h (2 Bft)
28.07.2017 01:05 17,9 C 17,9 C 92 % 1009,2 hPa 0,0 l/m 4,2 km/h (1 Bft) S 191 0 min 0 W/m 16,6 C 17,9 C 8,0 km/h (2 Bft)
28.07.2017 01:00 17,9 C 17,9 C 92 % 1009,1 hPa 0,0 l/m 4,0 km/h (1 Bft) S 188 0 min 0 W/m 16,6 C 17,9 C 8,0 km/h (2 Bft)
28.07.2017 00:55 17,9 C 17,9 C 92 % 1009,1 hPa 0,0 l/m 2,4 km/h (1 Bft) S 186 0 min 0 W/m 16,6 C 17,9 C 4,8 km/h (1 Bft)
28.07.2017 00:50 18,0 C 18,0 C 92 % 1009,0 hPa 0,0 l/m 3,8 km/h (1 Bft) S-SW 192 0 min 0 W/m 16,7 C 18,0 C 9,7 km/h (2 Bft)
28.07.2017 00:45 18,1 C 18,0 C 92 % 1009,1 hPa 0,0 l/m 4,5 km/h (1 Bft) SW 221 0 min 0 W/m 16,8 C 18,1 C 8,0 km/h (2 Bft)
28.07.2017 00:40 18,1 C 18,0 C 92 % 1009,0 hPa 0,0 l/m 6,0 km/h (2 Bft) S 182 0 min 0 W/m 16,8 C 18,1 C 11,3 km/h (2 Bft)
28.07.2017 00:35 18,1 C 18,0 C 93 % 1009,0 hPa 0,0 l/m 4,1 km/h (1 Bft) S-SW 212 0 min 0 W/m 16,9 C 18,1 C 9,7 km/h (2 Bft)
28.07.2017 00:30 18,0 C 18,0 C 93 % 1009,0 hPa 0,0 l/m 3,3 km/h (1 Bft) S-SW 207 0 min 0 W/m 16,8 C 18,0 C 6,4 km/h (2 Bft)
28.07.2017 00:25 18,1 C 18,1 C 93 % 1008,9 hPa 0,0 l/m 2,9 km/h (1 Bft) S 173 0 min 0 W/m 16,9 C 18,1 C 6,4 km/h (2 Bft)
28.07.2017 00:20 18,1 C 18,1 C 93 % 1009,0 hPa 0,0 l/m 2,3 km/h (1 Bft) S-SW 202 0 min 0 W/m 16,9 C 18,1 C 6,4 km/h (2 Bft)
28.07.2017 00:15 18,1 C 18,1 C 93 % 1009,0 hPa 0,0 l/m 1,5 km/h (1 Bft) SW 232 0 min 0 W/m 16,9 C 18,1 C 4,8 km/h (1 Bft)
28.07.2017 00:10 18,1 C 18,1 C 93 % 1009,0 hPa 0,0 l/m 1,7 km/h (1 Bft) SW 234 0 min 0 W/m 16,9 C 18,1 C 4,8 km/h (1 Bft)
28.07.2017 00:05 18,2 C 18,2 C 93 % 1009,1 hPa 0,0 l/m 2,2 km/h (1 Bft) W-SW 248 0 min 0 W/m 17,0 C 18,2 C 6,4 km/h (2 Bft)
28.07.2017 00:00 18,2 C 18,1 C 93 % 1008,9 hPa 0,0 l/m 2,5 km/h (1 Bft) SW 218 0 min 0 W/m 17,0 C 18,2 C 6,4 km/h (2 Bft)
_ Min-Zeit 04:40 04:40 00:40 00:00 - 03:35 - - - - 04:40 04:40 03:40
Minimum _ 15,7 C 15,7 C 92 % 1008,9 hPa - 1,3 km/h (1 Bft) - - - - 14,6 C 15,7 C 3,2 km/h (1 Bft)
_ Max-Zeit 00:00 00:05 00:00 04:35 01:45 02:55 - - 00:00 00:00 00:00 00:00 03:05
Maximum _ 18,2 C 18,2 C 93 % 1010,8 hPa 0,2 l/m 6,2 km/h
S (2 Bft)
- - 0 min 0 W/m 17,0 C 18,2 C 14,5 km/h
S-SO (3 Bft)
Durchschnitt _ 17,3 C 17,3 C 93 % 1009,8 hPa #0,2 l/m 3,7 km/h (1 Bft) S-SW - #0 min. 0 W/m 16,2 C 17,3 C 7,5 km/h (2 Bft)